Погода в Паче

Россия / Кемеровская область (Кузбасс)     55°42′18″N   85°29′41″E
темп.,
°C
ветер,
м/с
пор.,
м/с
влажн.,
%
обл.,
%
осадки,
мм/ч
давл.,
гПа
погр.,
м
19 сентября, вс
вс1901:00+4ююз358342 0.0 101099
04:00+6ююз3773100 0.0 1010278
07:00+6ю4973100 0.0 1009350
10:00+8ююз5964100 0.0 1008662
13:00+11ююз5752100 0.0 10071265
16:00+13ююз5846100 0.0 10041564
19:00+10ю4105998 0.0 1003301
22:00+9з41086100 0.3 1003573
20 сентября, пн
пн2001:00+5з4109393 0.4 1004433
04:00+4зюз3894100 0.1 1006310
07:00+3юз399699 0.3 1008308
10:00+5юз71180100 0.2 10091085
13:00+6юз81266100 0.5 10101503
16:00+5юз61085100 0.8 1011987
19:00+4юз4989100 1.5 1011850
22:00+3юз3898100 0.3 1011624
21 сентября, вт
вт2101:00+3зюз4793100 0.6 1010810
04:00+1зюз4998100 0.3 1011535
07:00+1зюз5893100 0.5 1011562
10:00+2юз4997100 0.4 1012591
13:00+3зюз4897100 1.1 1013639
16:00+3з5996100 0.4 1014640
19:00+2з51098100 1.0 1015777
22:00+2з4998100 0.3 1017710
22 сентября, ср
ср2201:00+2з4897100 0.4 1018566
04:00+1зюз4898100 0.2 1018470
07:00+1зюз3699100 1.0 1019292
10:000з3690100 0.9 1020490
13:00+3зюз467796 1.2 10201192
16:00+4зюз467497 0.3 10201062
19:00+2юз2584100 0.4 1020129
22:00+1ююз2496100 0.0 1021217
23 сентября, чт
чт2301:00+1юз24100100 1.3 1020203
04:00+1ююз13100100 0.6 1019165
07:00+1ююз23100100 1.0 1020127
10:00+2ююз1299100 0.3 1020150
13:00+3юз1191100 0.6 1021377
16:00+4зюз118598 0.4 1022527
19:00+2ссз239697 1.2 1023353
22:00+1с2397100 0.2 1024238